Location: Vancouver
(49.2500°N, 123.1330°W)
Time: 02:14:06
(UTC-07:00)

ERS-2 - Visible Passes

Search period start: 26 March 2017 00:00
Search period end: 05 April 2017 00:00
Orbit: 503 x 506 km, 98.6° (Epoch: 24 March)

Date Brightness Start Highest point End Pass type
(mag) Time Alt. Az. Time Alt. Az. Time Alt. Az.
26 Mar 2.5 05:47:50 10° NNE 05:51:33 66° ESE 05:55:13 10° S visible
27 Mar 3.5 05:29:46 10° NNE 05:33:17 40° E 05:36:47 10° S visible
28 Mar 4.4 05:11:51 10° NE 05:14:59 25° E 05:18:05 10° SSE visible
29 Mar 5.0 04:54:14 10° NE 04:56:37 16° E 04:59:00 10° SE visible
30 Mar 5.5 04:37:46 10° E 04:38:13 10° E 04:38:39 10° E visible
30 Mar 2.1 06:08:43 10° NNE 06:12:25 75° WNW 06:16:07 10° SSW visible
31 Mar 2.6 05:50:31 10° NNE 05:54:13 66° ESE 05:57:53 10° S visible
01 Apr 3.6 05:32:25 10° NNE 05:35:57 39° E 05:39:26 10° S visible
02 Apr 4.4 05:14:30 10° NE 05:17:37 25° E 05:20:43 10° SSE visible
03 Apr 5.1 04:56:52 10° NE 04:59:15 16° E 05:01:36 10° SE visible
04 Apr 5.6 04:40:34 10° E 04:40:48 10° E 04:41:04 10° E visible
04 Apr 2.1 06:11:19 10° NNE 06:15:02 76° WNW 06:18:43 10° SSW visible
